Reading, PA

12:24 PM EST on December 08, 2016 (GMT -0500)
Reading Regional-Spaatz

Weather History for KRDG - January, 2014

Change the Weather History Date:

Saturday, January 18, 2014

  Actual Average Record
Temperature  
Mean Temperature 26 °F 29 °F  
Max Temperature 33 °F 37 °F 63 °F (1986)
Min Temperature 19 °F 21 °F -9 °F (1977)
Degree Days  
Heating Degree Days 39 36  
Month to date heating degree days 664 633  
Since 1 July heating degree days 2652 2664  
Cooling Degree Days 0 0  
Month to date cooling degree days 0 0  
Year to date cooling degree days 0 0  
Moisture  
Dew Point 22 °F    
Average Humidity 68    
Maximum Humidity 89    
Minimum Humidity 46    
Precipitation  
Precipitation 0.04 in 0.09 in 2.05 in (1978)
Month to date precipitation 3.18 1.91  
Year to date precipitation 3.18 1.91  
Sea Level Pressure  
Sea Level Pressure 29.83 in    
Wind  
Wind Speed 10 mph (WNW)    
Max Wind Speed 21 mph    
Max Gust Speed 26 mph    
Visibility 7 miles    
Events Snow    
T = Trace of Precipitation, MM = Missing Value Source: NWS Daily Summary

Daily Weather History Graph

Daily Weather History Graph

Search for Another Location

Airport or City:

Trip Planner

Search our weather history database for the weather conditions in past years. The results will help you decide how hot, cold, wet, or windy it might be!

Date:

Astronomy

Jan. 18, 2014 Rise Set
Actual Time 7:23 AM EST 5:05 PM EST
Civil Twilight 6:53 AM EST 5:35 PM EST
Nautical Twilight 6:20 AM EST 6:08 PM EST
Astronomical Twilight 5:47 AM EST 6:41 PM EST
Moon 7:46 PM EST (1/18) 8:21 AM EST (1/18)
Length of Visible Light 10h 41m
Length of Day
9h 42m
Waning Gibbous, 94% of the Moon is Illuminated
Jan 18
Waning Gibbous
Jan 24
Last Quarter
Jan 30
New
Feb 6
First Quarter
Feb 14
Full

Hourly Weather History & Observations

Time (EST) Temp. Windchill Dew Point Humidity Pressure Visibility Wind Dir Wind Speed Gust Speed Precip Events Conditions
12:54 AM 30.0 °F 25.2 °F 25.0 °F 82% 29.83 in 9.0 mi NNW 4.6 mph - N/A   Partly Cloudy
1:54 AM 32.0 °F 28.7 °F 27.0 °F 82% 29.82 in 9.0 mi West 3.5 mph - N/A   Overcast
2:54 AM 32.0 °F 24.8 °F 28.0 °F 85% 29.82 in 3.0 mi North 8.1 mph - 0.00 in Snow Light Snow
2:58 AM 32.0 °F 24.2 °F 28.4 °F 87% 29.79 in 1.8 mi North 9.2 mph - 0.00 in Snow Light Snow
3:13 AM 32.0 °F 24.8 °F 28.4 °F 87% 29.78 in 2.5 mi North 8.1 mph - 0.00 in Snow Light Snow
3:20 AM 30.2 °F 23.4 °F 28.4 °F 93% 29.78 in 4.0 mi NNW 6.9 mph - 0.00 in Snow Light Snow
3:33 AM 30.2 °F 25.4 °F 28.4 °F 93% 29.78 in 5.0 mi North 4.6 mph - 0.00 in   Scattered Clouds
3:54 AM 30.9 °F 27.5 °F 28.9 °F 92% 29.80 in 4.0 mi WNW 3.5 mph - 0.00 in   Mostly Cloudy
4:01 AM 32.0 °F 28.7 °F 28.4 °F 87% 29.78 in 4.0 mi West 3.5 mph - N/A   Overcast
4:09 AM 32.0 °F 28.7 °F 28.4 °F 87% 29.78 in 5.0 mi West 3.5 mph - N/A   Overcast
4:38 AM 32.0 °F 26.4 °F 30.2 °F 93% 29.78 in 2.5 mi West 5.8 mph - 0.00 in Snow Light Snow
4:50 AM 32.0 °F 25.6 °F 28.4 °F 87% 29.79 in 1.8 mi WNW 6.9 mph - 0.01 in Snow Light Snow
4:54 AM 32.0 °F 25.6 °F 30.0 °F 92% 29.82 in 1.2 mi West 6.9 mph - 0.02 in Snow Light Snow
5:04 AM 33.8 °F 27.0 °F 30.2 °F 87% 29.78 in 0.8 mi WNW 8.1 mph - 0.01 in Snow Light Snow
5:24 AM 33.8 °F 27.7 °F 30.2 °F 87% 29.78 in 1.2 mi NW 6.9 mph - 0.02 in Snow Light Snow
5:50 AM 33.8 °F 27.7 °F 30.2 °F 87% 29.78 in 3.0 mi WNW 6.9 mph - 0.02 in Snow Light Snow
5:54 AM 33.1 °F 26.9 °F 30.0 °F 89% 29.80 in 4.0 mi WNW 6.9 mph - 0.02 in Snow Light Snow
6:11 AM 32.0 °F 23.0 °F 30.2 °F 93% 29.78 in 4.0 mi West 11.5 mph - 0.00 in Snow Light Snow
6:29 AM 32.0 °F 23.6 °F 28.4 °F 87% 29.78 in 6.0 mi WNW 10.4 mph 19.6 mph 0.00 in Snow Light Snow
6:38 AM 32.0 °F 21.2 °F 28.4 °F 87% 29.78 in 4.0 mi WNW 16.1 mph - 0.00 in Snow Light Snow
6:54 AM 30.9 °F 23.5 °F 27.0 °F 85% 29.81 in 3.0 mi West 8.1 mph - 0.00 in Snow Light Snow
7:54 AM 30.9 °F 23.5 °F 24.1 °F 76% 29.82 in 10.0 mi WNW 8.1 mph - 0.00 in   Overcast
8:37 AM 30.2 °F 21.9 °F 24.8 °F 80% 29.80 in 6.0 mi NW 9.2 mph - 0.00 in Snow Light Snow
8:54 AM 30.9 °F 22.8 °F 23.0 °F 72% 29.83 in 9.0 mi WNW 9.2 mph - 0.00 in   Scattered Clouds
9:54 AM 30.9 °F 19.8 °F 21.0 °F 67% 29.85 in 10.0 mi WNW 16.1 mph 20.7 mph N/A   Mostly Cloudy
10:21 AM 30.2 °F 20.8 °F 21.2 °F 69% 29.83 in 10.0 mi West 11.5 mph 19.6 mph 0.00 in Snow Light Snow
10:54 AM 30.0 °F 18.3 °F 21.0 °F 69% 29.86 in 10.0 mi WNW 17.3 mph 24.2 mph 0.00 in   Overcast
11:54 AM 28.0 °F 15.7 °F 18.0 °F 66% 29.85 in 10.0 mi WNW 17.3 mph 24.2 mph 0.00 in   Overcast
12:54 PM 28.0 °F 15.7 °F 16.0 °F 61% 29.84 in 10.0 mi West 17.3 mph - 0.00 in   Mostly Cloudy
1:54 PM 28.9 °F 18.2 °F 14.0 °F 54% 29.84 in 10.0 mi WNW 13.8 mph - N/A   Clear
2:54 PM 28.9 °F 17.7 °F 10.9 °F 47% 29.86 in 10.0 mi WNW 15.0 mph - N/A   Clear
3:54 PM 28.0 °F 16.5 °F 10.9 °F 49% 29.89 in 10.0 mi West 15.0 mph - N/A   Clear
4:54 PM 26.1 °F 13.1 °F 9.0 °F 49% 29.90 in 10.0 mi WNW 17.3 mph - N/A   Clear
5:54 PM 24.1 °F 13.7 °F 8.1 °F 51% 29.91 in 10.0 mi WNW 10.4 mph - N/A   Clear
6:54 PM 21.9 °F 13.4 °F 7.0 °F 53% 29.93 in 10.0 mi West 6.9 mph - N/A   Clear
7:54 PM 21.9 °F 14.5 °F 8.1 °F 55% 29.95 in 10.0 mi West 5.8 mph - N/A   Clear
8:54 PM 21.0 °F 11.4 °F 8.1 °F 57% 29.94 in 10.0 mi West 8.1 mph - N/A   Clear
9:54 PM 19.9 °F 11.1 °F 8.1 °F 60% 29.95 in 10.0 mi West 6.9 mph - N/A   Clear
10:54 PM 19.9 °F 11.1 °F 8.1 °F 60% 29.97 in 10.0 mi WSW 6.9 mph - N/A   Clear
11:54 PM 19.0 °F 10.0 °F 8.1 °F 62% 29.94 in 10.0 mi West 6.9 mph - N/A   Clear